Regional Weather Roundup
Issued by NWS Green Bay, WI

Home | Current Version | Previous Version | Graphics & Text | Print | Product List | Glossary Off
Versions: 1 2 3 4 5 6 7 8 9 10 11 12 13 14 15 16 17 18 19 20 21 22 23 24 25 26 27 28 29 30 31 32 33 34 35 36 37 38 39 40 41 42 43 44 45 46 47 48 49 50

000
ASUS43 KGRB 221059
RWRGRB

NORTH-CENTRAL AND NORTHEAST WISCONSIN REGIONAL WEATHER ROUNDUP
NATIONAL WEATHER SERVICE GREEN BAY WI
600 AM CDT FRI AUG 22 2014

WIZ005-009-010>012-018-019-221200-
NORTH CENTRAL WISCONSIN

CITY           SKY/WX    TMP DP  RH WIND       PRES   REMARKS
IRONWOOD       CLOUDY    66  64  94 CALM      29.92R
MANITOWISH WTR NOT AVBL
ARBOR VITAE    NOT AVBL
EAGLE RIVER    NOT AVBL
LAND O LAKES   NOT AVBL
RHINELANDER    FOG       63  63 100 E5        29.97R VSB 1/2
PHILLIPS       CLOUDY    64  64 100 E6        29.93R FOG
ANTIGO         NOT AVBL
TOMAHAWK       NOT AVBL
MERRILL        NOT AVBL
$$

WIZ013-073-221200-
NORTHEAST WISCONSIN

CITY           SKY/WX    TMP DP  RH WIND       PRES   REMARKS
IRON MOUNTAIN  CLOUDY    64  61  90 W3        29.96R
MARINETTE      CLOUDY    66  63  88 E5        29.94R
$$

WIZ017-030-035>037-045-221200-
CENTRAL WISCONSIN

CITY           SKY/WX    TMP DP  RH WIND       PRES   REMARKS
MEDFORD        NOT AVBL
WAUSAU         FOG       65  65 100 E5        29.93R VSB 3/4
MOSINEE        NOT AVBL
MARSHFIELD     FOG       70  69  97 E5        29.92S VSB 1/4
WISC RAPIDS    CLOUDY    71  69  93 CALM      29.93S FOG
STEVENS POINT  NOT AVBL
WAUPACA        NOT AVBL
SHAWANO        CLOUDY    67  65  92 CALM      29.95R FOG
CLINTONVILLE   NOT AVBL
$$

WIZ038-039-048-051-221200-
FOX VALLEY

CITY           SKY/WX    TMP DP  RH WIND       PRES   REMARKS
NWS GREEN BAY  CLOUDY    66  65  96 CALM      29.95R FOG
APPLETON       NOT AVBL
OSHKOSH        CLOUDY    70  69  97 S7        29.93R FOG
FOND DU LAC    CLOUDY    69  67  93 SE5       29.93S
$$

WIZ022-050-052-221200-
EAST CENTRAL WISCONSIN

CITY           SKY/WX    TMP DP  RH WIND       PRES   REMARKS
STURGEON BAY   CLOUDY    66  63  88 SE3       29.96R VSB 1
MANITOWOC      FOG       66  66 100 CALM      29.95R VSB 3/4
SHEBOYGAN      FOG       67  67 100 NE3       29.95R VSB 1/4
$$

LMZ563-521-522-541>543-221200-
LAKESHORE

STATION/POSITION TIME  TEMP    WIND        PRES    VSBY  WAVE
                       AIR SEA DIR/SP/G                  HT/PER
                 (UTC) (F)     (DEG/KT/KT) (MB)    (MI)  (FT/S)
SHEBOYGAN LKSHOR 1000   67 65  170/  3/  4 1013.5R
KEWAUNEE LKSHORE 1000   66     180/  3/  4 1013.0R
NORTHPORT PIER   1000   65     120/  3/  5 1013.9R
N MID LAKE BUOY  1000   65 64  120/  6/  8 1012.8F         0
S GREEN BAY BUOY 1000   68     VRB  6      1014.6R
SISTER BAY LKSHO 1000   64     130/  6/ 10   N/A
CHAMBERS ISLAND  1000   66     100/  4/  5 1013.9R
MENOMINEE LKSHOR 1000   67      60/  5/  7 1014.5R
$$



USA.gov is the U.S. government's official web portal to all federal, state and local government web resources and services.